[Date Prev][Date Next][Thread Prev][Thread Next][Date Index][Thread Index]

[jamsat-news:1393] jas2info #207



========================   最新情報   ==============================

        Last updated :Thu21DEC.2000  21:40 (JST) #207
====================================================================
   
  1)アマチュア通信衛星情報 FOシリーズの軌道要素、テレメトリ、
   QSOの状況等をまとめてみました.
   
   FO−29の12月21日(木)の20:53(JST)のパスでは
  JARLホームページのとうりアナログ運用でした。
  今まで観測したテレメトリーと分析結果を掲載しておきます.   
 
 AS21462C1 21THU2000
 20:53-21:05(JST)

 HI HI AE 07 88 55 00 D4 DA F5 09 3D 9E 6C 00 88 83 82 8D 82 AC AB AD AC AD 
 HI HI AE 07 88 55 00 D4 DA F5 09 3D A2 76 00 88 83 82 8D 8F AC AB AD AC AD 
 HI HI AE 07 88 55 00 D4 DA F5 09 3D A0 81 00 89 82 82 8D 7F AC AC AD AC AD 
 HI HI AE 07 88 55 00 D4 DA F5 09 3D 99 8B 00 89 82 81 8D 7D AD AC AD AD AD 
 HI HI AE 07 8  55 00 D4 DA F5 09 3D 8F 93 00 88 82 81 8C 86 AD AC AD AD AD 
 HI HI AE 07 88 55 00 D4 DA F5 09 3D 80 99 00 88 82 81 8C 85 AD AC AD AD AD 
 HI HI AE 07 88 55 00 D4 DA F5 09 3D 71 9C 00 88 82 81 8C 90 AD AC AE AD AD 
 HI HI AE 07 88 55 00 D4 DA F5 09 3D 51 9C 00 88 82 81 6C 8D AD AC AE AD AD 
 HI HI AE 07 88 55 00 D4 DA F5 09 3D 53 97 00 89 82 81 8C 8A AD AD AE AD AD 
 HI HI AE 07 88 55 00 D4 DA F5 09 3D 48 90 00 88 81 81 8C 7F AD AD AE AD AD 
 HI HI AE 07 88 55 00 D4 DA F5 09 3D 40 85 00 89 81 81 8C AE AD AE AE AD AD
 HI HI AE 07 88 55 00 D4 DA F5 09 3D 3F 79 06 88 80 81 8C 86 AE AD AE AE AD 

  
 ------------------------ FO-29の軌道要素 ------------------------------        
 
  ■ 軌道要素1:「jamsat−keps:1052」より         
          SB KEPS @ AMSAT  $ORB00335.N
               2Line Orbital Elements 00335.AMSAT

 HR AMSAT ORBITAL ELEMENTS FOR AMATEUR SATELLITES IN NASA FORMAT
 FROM WA5QGD FORT WORTH,TX November 30, 2000
 SEND SUBSCRIBE/UNSUBSCRIBE TO majordomo@amsat.org ONLY
 BID: ORB00335.N

 DECODE 2-LINE ELSETS WITH THE FOLLOWING KEY:
 1 AAAAAU 00  0  0 BBBBB.BBBBBBBB  .CCCCCCCC  00000-0  00000-0 0  DDDZ
 2 AAAAA EEE.EEEE FFF.FFFF GGGGGGG HHH.HHHH III.IIII JJ.JJJJJJJJKKKKKZ
 KEY: A-CATALOGNUM B-EPOCHTIME C-DECAY D-ELSETNUM E-INCLINATION F-RAAN
 G-ECCENTRICITY H-ARGPERIGEE I-MNANOM J-MNMOTION K-ORBITNUM Z-CHECKSUM

  FO-29
 1 24278U 96046B   00335.16798771  .00000098  00000-0  13443-3 0  3758
 2 24278  98.5681 221.0881 0351453 157.2217 204.4956 13.52749620211733

 ■ 軌道要素2:「jamsat−keps:1047」より                    
         SB KEPS @ AMSAT  $ORB00335.O
             Orbital Elements  00335.OSCAR

 HR AMSAT ORBITAL ELEMENTS FOR OSCAR SATELLITES
 FROM WA5QGD FORT WORTH,TX November 30, 2000
 SEND SUBSCRIBE/UNSUBSCRIBE TO majordomo@amsat.org ONLY
 BID: ORB00335.O
 TO ALL RADIO AMATEURS BT

  Satellite: FO-29
 Catalog number: 24278
 Epoch time:      00335.16798771
 Element set:     375
 Inclination:       98.5681 deg
 RA of node:       221.0881 deg
 Eccentricity:    0.0351453
 Arg of perigee:   157.2217 deg
 Mean anomaly:     204.4956 deg
 Mean motion:   13.52749620 rev/day
 Decay rate:        9.8e-07 rev/day^2
 Epoch rev:           21173
 Checksum:              322
-------------------  FO-29(JAS-2)のテレメトリに関する情報  ---------------------- 
 
2)上記テレメトリーの最終行を分析しておきます.
 
  AS21462C1 21THU2000
  20:53-21:05(JST)
  Freq.435.803-790MHz

  HI HI AE 07 88 55 00 D4 DA F5 09 3D 3F 79 06 88 80 81 8C 86 AE AD AE AE AD
    
         テレメトリ  内 容     換算算値 単 位  

         3C	磁気センサーZ軸	=	30882.3	[nT]	
        3D	磁気センサX軸	=	59313.7	[nT]	
        4A	太陽電池発生電流	=	   58.8	[mA]	
        4B	B充放電電流	= 	  665.6	[mA]	
        4C	B端子電圧	=	   13.8	[V]	
        4D	B中間端子電圧	=  	    6.2	[V]	
        5A	バス電圧	    =	   13.7	[V]	
        5B	JTA送信電力	=	  772.9	[mW]	
        5C 	構体温度1	=	   14.3	[℃]	
        5D	構体温度2	=	   14.7	[℃]	
        6A	構体温度3	=	   14.3	[℃]	
        6B	構体温度4	=	   14.3	[℃]	
        6C	Bセル温度	=	   14.7	[℃]	
	
 ===========================  FO-29(ふじ3号)のQSO情報等 ======================
   
 3)[jamsat-bb:

 ===============================================================================
   4)JARL のホームページに運用予定が記載されていましたのでご紹介します.
       ( http://www.jarl.or.jp/Japanese/3_Fuji/new/uy.htm )

        ■ ふじ3号/FOー29/JAS-2 ■  
   
     *** 運用予定について *** 

    11月27日 〜 平成13年1月7日 アナログ系運用 

  *なお,運用予定は都合により変更することがありますので予めご了承願います。
   照会先 : lab@jarl.or.jp
 最新の情報はテレホンサービス(03−3942−1000)をお聞きください。  
 以後の運用につきましては平成13年1月上旬にお知らせ致します。 
 
-----------------------    FO−20(JAS-1b)道要素   -------------------------
  5)
  ■ 軌道要素1 :出典はFO-29「ふじ3号」に同じ.
  
  FO-20
1 20480U 90013C   00334.82052230 -.00000031  00000-0 -68666-6 0  2727
2 20480  99.0749  74.3701 0541255  40.3943 323.6070 12.83283224506525
 
  ■ 軌道要素2 :出典はFO−29「ふじ3号」に同じ.
               
  Satellite: FO-20
  Catalog number: 20480
  Epoch time:      00334.82052230
  Element set:     272
  Inclination:       99.0749 deg
  RA of node:        74.3701 deg
  Eccentricity:    0.0541255
  Arg of perigee:    40.3943 deg
  Mean anomaly:     323.6070 deg
  Mean motion:   12.83283224 rev/day
  Decay rate:       -3.1e-07 rev/day^2
  Epoch rev:           50652
  Checksum:              254

 --------------------------------------------------------------------------------
 
         ■ ふじ2号/FO−20/JAS-1b ■      
            
          「ふじ2号」 現況                                                                                  
             
   JAS-1b(ふじ2号)のCWテレメトリ信号に,1997年10月12日12時(JST)の
 日本上空通過時,3桁の数字が繰り返されるはずが3個の長音の繰り返しとなっているという
 異常が発見されました。この不具合は次の通過時からは回復していましたが13日15時20分の
 通過時に再び観測されました。現在はA0の送信が続いています。衛星のアナログ系中継モード
 動作は異常が無く,正常時のテレメトリ内容からは衛星の動作に異常は認められません。従って,
 直ちに衛星のミッションに影響することは無いと予想されますので,当面はアナログ系中継
 モードを継続します。衛星は既に打ち上げてから7年8ヶ月を経ておりますので,今後は監視を
 強化する予定です。アマチュア各位のレポートをお待ちします。
 -------------------------------------------------------------------------------- 
  1997年10月14日 00時35分 確認のテレメトリ音 151 KB (A0) 
  1997年10月14日 11時10分 確認のテレメトリ音 216 KB (異常キーイング) 

  以上 JARLのホ−ムページの http://www.jarl.or.jp/Japanese/3_Fuji/new/fuji.htm

===================== FO-20 ふじ2号 のテレメトリ観測結果 ====================

   6月3日(土)の14:15(JST)のパスの観測結果では以前観測した結果よりも変動のない
 単一周波数でドップラー効果で周波数がずれていくのみの状態に戻っておりました。
                                         
   =============   JAS-2 (ふじ3号)と現在までの情報   ===========
  
  A.電話によるふじ3号の運用情報
      社団法人日本アマチュア連盟によるサービス
           TEL .   03− 3942 − 1000
  B.アマチュア無線FAXサービス
      JARLによるふじ3号の軌道情報(オービットカレンダー)
         FAX No.  03− 3233 −0055
  C.WWWブラウザで情報を簡単に見れる人のためにJAS−2
     ふじ3号の衛星としての運用されるまでの名前)の概要、打ち上げ
     までの状況、運用中における状況を説明したホームページを紹介し
     ておきます.
     社団法人日本アマチュア無線連盟(JARL)のホームページ

          http://www.jarl.or.jp/Japanese/3_Fuji/jasmenu.htm
 
     宇宙開発事業団(NASDA)ホームページ 
          http://www.nasda.go.jp/
         打上げ衛星 :地球観測プラットフォーム技術衛星(ADEOS) 
                       アマチュア衛星3号(JAS-2)
          http://yyy.tksc.nasda.go.jp/Home/Press/Press-j/jas-2_j.html        

  D.JAMSATによる軌道情報の活用
        JAMSATのホームページまたはjamsat−kepsの軌道要素より
      衛星の軌道情報を得る.
     JAMSATホームページ
               URL    http://www.jamsat.or.jp
       上記ホームページでは各地で行われるアマチュア通信衛星に関する
      ミューティングのお知らせや世界のアマチュア衛星に関する情報が
      満載されています.
 ========================================================================  
     JAMSATのメンバーのご協力によりJH6MME(高山 秀造)が
    執筆・編集を担当しております.ご指摘の意見、疑問やこのようにしたら
    というアイデアがありましたら小さなことでもかまいませんので気軽に下
    記アドレスまでご連絡ください.jamsat−newsからjas2
    infoへの転載をJH4PHW局坂井さんに担当して頂いております.  
                  E-mail : jh6mme@jamsat.or.jp : jh4phw@jamsat.or.jp
 ===============================   END  ===============================